When you browse on this site, cookies collect data to enhance your experience and personalize the content and advertising you see.
Visit our Privacy Policy to learn more. By continuing to use the site, you agree to this use of cookies and data.
  • In United Kingdom
  • List of Countries
  • For 7 days
  • Water Temperature
  • Satellite Maps
  • Weather Map
  • Weather Widgets
  • user-avatar
    Login

    Hourly Weather Roseau

    Today, 24 March, Sunday

    Time Temperature Precipitation Wind Pressure Humidity
    00:00 +28°C° 0.1 mm 6 mps 762 mmHg 77%
    01:00 +28°C° 0.1 mm 6 mps 762 mmHg 77%
    02:00 +28°C° 0 mm 6 mps 762 mmHg 77%
    03:00 +28°C° 0.2 mm 6 mps 762 mmHg 77%
    04:00 +28°C° 0.2 mm 6 mps 762 mmHg 77%
    05:00 +28°C° 0.2 mm 6 mps 762 mmHg 78%
    06:00 +28°C° 0.2 mm 7 mps 762 mmHg 77%
    07:00 +28°C° 0.2 mm 7 mps 763 mmHg 77%
    08:00 +28°C° 0.2 mm 8 mps 763 mmHg 76%
    09:00 +29°C° 0.3 mm 8 mps 763 mmHg 74%
    10:00 +29°C° 0.3 mm 8 mps 763 mmHg 71%
    11:00 +31°C° 0.3 mm 9 mps 763 mmHg 69%
    12:00 +31°C° 0.1 mm 8 mps 763 mmHg 68%
    13:00 +31°C° 0.1 mm 8 mps 762 mmHg 67%
    14:00 +31°C° 0.1 mm 8 mps 762 mmHg 67%
    15:00 +31°C° 0.1 mm 8 mps 762 mmHg 68%
    16:00 +29°C° 0.1 mm 8 mps 761 mmHg 70%
    17:00 +29°C° 0.1 mm 8 mps 761 mmHg 72%
    18:00 +28°C° 0 mm 8 mps 761 mmHg 73%
    19:00 +28°C° 0 mm 8 mps 762 mmHg 74%
    20:00 +28°C° 0 mm 8 mps 762 mmHg 75%
    21:00 +28°C° 0 mm 8 mps 762 mmHg 74%
    22:00 +28°C° 0 mm 8 mps 762 mmHg 74%
    23:00 +28°C° 0 mm 8 mps 762 mmHg 73%

    Tomorrow, 25 March, Monday

    Time Temperature Precipitation Wind Pressure Humidity
    00:00 +28°C° 0 mm 8 mps 762 mmHg 74%
    01:00 +27°C° 0 mm 8 mps 761 mmHg 74%
    02:00 +27°C° 0 mm 8 mps 761 mmHg 74%
    03:00 +27°C° 0 mm 8 mps 761 mmHg 73%
    04:00 +27°C° 0 mm 8 mps 760 mmHg 73%
    05:00 +27°C° 0 mm 8 mps 760 mmHg 72%
    06:00 +28°C° 0 mm 8 mps 761 mmHg 70%
    07:00 +28°C° 0 mm 8 mps 761 mmHg 68%
    08:00 +28°C° 0 mm 8 mps 761 mmHg 65%
    09:00 +29°C° 0 mm 8 mps 762 mmHg 63%
    10:00 +29°C° 0 mm 8 mps 762 mmHg 62%
    11:00 +31°C° 0 mm 8 mps 762 mmHg 60%
    12:00 +31°C° 0 mm 8 mps 762 mmHg 60%
    13:00 +31°C° 0 mm 8 mps 761 mmHg 60%
    14:00 +31°C° 0 mm 8 mps 760 mmHg 60%
    15:00 +31°C° 0 mm 8 mps 760 mmHg 63%
    16:00 +29°C° 0 mm 8 mps 760 mmHg 65%
    17:00 +29°C° 0 mm 7 mps 759 mmHg 67%
    18:00 +29°C° 0 mm 7 mps 760 mmHg 69%
    19:00 +28°C° 0 mm 7 mps 760 mmHg 70%
    20:00 +28°C° 0 mm 7 mps 760 mmHg 71%
    21:00 +28°C° 0 mm 7 mps 761 mmHg 72%
    22:00 +28°C° 0 mm 7 mps 761 mmHg 73%
    23:00 +28°C° 0 mm 7 mps 761 mmHg 74%

    Day after tomorrow, 26 March, Tuesday

    Time Temperature Precipitation Wind Pressure Humidity
    00:00 +28°C° 0 mm 7 mps 761 mmHg 75%
    01:00 +28°C° 0 mm 7 mps 760 mmHg 75%
    02:00 +28°C° 0 mm 7 mps 760 mmHg 75%
    03:00 +27°C° 0.2 mm 7 mps 760 mmHg 75%
    04:00 +27°C° 0.2 mm 7 mps 759 mmHg 75%
    05:00 +27°C° 0.2 mm 8 mps 759 mmHg 75%
    06:00 +28°C° 0.2 mm 8 mps 760 mmHg 74%
    07:00 +28°C° 0.2 mm 8 mps 760 mmHg 72%
    08:00 +28°C° 0.2 mm 8 mps 761 mmHg 70%
    09:00 +29°C° 0 mm 8 mps 761 mmHg 67%
    10:00 +30°C° 0 mm 7 mps 761 mmHg 64%
    11:00 +30°C° 0 mm 7 mps 762 mmHg 61%
    12:00 +30°C° 0 mm 7 mps 761 mmHg 60%
    13:00 +30°C° 0 mm 6 mps 760 mmHg 60%
    14:00 +30°C° 0 mm 6 mps 759 mmHg 59%
    15:00 +30°C° 0 mm 6 mps 759 mmHg 62%
    16:00 +29°C° 0 mm 6 mps 759 mmHg 65%
    17:00 +29°C° 0 mm 7 mps 758 mmHg 67%
    18:00 +29°C° 0 mm 7 mps 759 mmHg 69%
    19:00 +28°C° 0 mm 7 mps 759 mmHg 72%
    20:00 +28°C° 0 mm 7 mps 760 mmHg 74%
    21:00 +28°C° 0 mm 7 mps 760 mmHg 74%
    22:00 +28°C° 0 mm 7 mps 760 mmHg 75%
    23:00 +28°C° 0 mm 7 mps 761 mmHg 75%

    27 March, Wednesday

    Time Temperature Precipitation Wind Pressure Humidity
    00:00 +28°C° 0.1 mm 6 mps 760 mmHg 76%
    01:00 +27°C° 0.1 mm 6 mps 760 mmHg 76%
    02:00 +27°C° 0.1 mm 6 mps 759 mmHg 77%
    03:00 +27°C° 0.2 mm 6 mps 759 mmHg 77%
    04:00 +27°C° 0.2 mm 6 mps 759 mmHg 77%
    05:00 +27°C° 0.2 mm 6 mps 759 mmHg 77%
    06:00 +28°C° 0.3 mm 6 mps 760 mmHg 75%
    07:00 +28°C° 0.3 mm 7 mps 760 mmHg 74%
    08:00 +28°C° 0.3 mm 7 mps 761 mmHg 73%
    09:00 +28°C° 0.4 mm 7 mps 761 mmHg 72%
    10:00 +29°C° 0.4 mm 7 mps 761 mmHg 70%
    11:00 +29°C° 0.4 mm 7 mps 761 mmHg 69%
    12:00 +29°C° 0.2 mm 7 mps 761 mmHg 68%
    13:00 +30°C° 0.2 mm 7 mps 760 mmHg 67%
    14:00 +30°C° 0.2 mm 7 mps 760 mmHg 66%
    15:00 +30°C° 0.1 mm 7 mps 760 mmHg 68%
    16:00 +29°C° 0.1 mm 7 mps 759 mmHg 69%
    17:00 +29°C° 0.1 mm 7 mps 759 mmHg 71%
    18:00 +28°C° 0 mm 6 mps 760 mmHg 72%
    19:00 +28°C° 0 mm 6 mps 760 mmHg 74%
    20:00 +28°C° 0 mm 6 mps 760 mmHg 76%
    21:00 +28°C° 0 mm 6 mps 761 mmHg 75%
    22:00 +28°C° 0 mm 6 mps 761 mmHg 75%
    23:00 +28°C° 0 mm 7 mps 761 mmHg 74%

    28 March, Thursday

    Time Temperature Precipitation Wind Pressure Humidity
    00:00 +28°C° 0 mm 6 mps 761 mmHg 74%
    01:00 +27°C° 0 mm 6 mps 760 mmHg 74%
    02:00 +27°C° 0 mm 6 mps 760 mmHg 74%
    03:00 +27°C° 0 mm 6 mps 760 mmHg 74%
    04:00 +27°C° 0 mm 6 mps 760 mmHg 74%
    05:00 +27°C° 0 mm 6 mps 760 mmHg 75%
    06:00 +28°C° 0 mm 6 mps 761 mmHg 73%
    07:00 +28°C° 0 mm 6 mps 761 mmHg 72%
    08:00 +28°C° 0 mm 6 mps 762 mmHg 70%
    09:00 +29°C° 0 mm 6 mps 762 mmHg 69%
    10:00 +29°C° 0 mm 7 mps 762 mmHg 67%
    11:00 +30°C° 0 mm 7 mps 762 mmHg 65%
    12:00 +30°C° 0 mm 7 mps 761 mmHg 65%
    13:00 +30°C° 0 mm 6 mps 761 mmHg 65%
    14:00 +30°C° 0 mm 6 mps 760 mmHg 65%
    15:00 +30°C° 0 mm 6 mps 760 mmHg 66%
    16:00 +29°C° 0 mm 6 mps 760 mmHg 68%
    17:00 +29°C° 0 mm 6 mps 760 mmHg 70%
    18:00 +29°C° 0 mm 6 mps 760 mmHg 72%
    19:00 +28°C° 0 mm 6 mps 761 mmHg 74%
    20:00 +28°C° 0 mm 6 mps 761 mmHg 77%
    21:00 +28°C° 0 mm 6 mps 761 mmHg 77%
    22:00 +28°C° 0 mm 5 mps 761 mmHg 77%
    23:00 +28°C° 0 mm 5 mps 761 mmHg 78%

    29 March, Friday

    Time Temperature Precipitation Wind Pressure Humidity
    00:00 +28°C° 0.1 mm 5 mps 761 mmHg 78%
    01:00 +27°C° 0.1 mm 5 mps 760 mmHg 79%
    02:00 +27°C° 0.1 mm 5 mps 760 mmHg 79%
    03:00 +27°C° 0 mm 6 mps 760 mmHg 79%
    04:00 +27°C° 0 mm 6 mps 760 mmHg 79%
    05:00 +27°C° 0 mm 6 mps 760 mmHg 79%
    06:00 +28°C° 0 mm 6 mps 761 mmHg 77%
    07:00 +28°C° 0 mm 6 mps 761 mmHg 75%
    08:00 +29°C° 0 mm 6 mps 761 mmHg 73%
    09:00 +29°C° 0 mm 6 mps 762 mmHg 71%
    10:00 +30°C° 0 mm 6 mps 762 mmHg 69%
    11:00 +30°C° 0 mm 6 mps 762 mmHg 66%
    12:00 +30°C° 0 mm 5 mps 761 mmHg 66%
    13:00 +30°C° 0 mm 5 mps 760 mmHg 65%
    14:00 +30°C° 0 mm 5 mps 760 mmHg 64%
    15:00 +30°C° 0 mm 5 mps 760 mmHg 66%
    16:00 +29°C° 0 mm 5 mps 759 mmHg 68%
    17:00 +29°C° 0 mm 5 mps 759 mmHg 70%
    18:00 +29°C° 0 mm 5 mps 760 mmHg 72%
    19:00 +28°C° 0 mm 5 mps 760 mmHg 73%
    20:00 +28°C° 0 mm 5 mps 760 mmHg 75%
    21:00 +28°C° 0 mm 5 mps 761 mmHg 75%
    22:00 +28°C° 0 mm 5 mps 761 mmHg 76%
    23:00 +28°C° 0 mm 5 mps 761 mmHg 76%
    Show more